TimeEDT,TemperatureF,Dew PointF,Humidity,Sea Level PressureIn,VisibilityMPH,Wind Direction,Wind SpeedMPH,Gust SpeedMPH,PrecipitationIn,Events,Conditions,WindDirDegrees,DateUTC
12:55 AM,41.5,30.4,65,29.81,10.0,NW,10.4,-,N/A,,Clear,310,2012-11-03 04:55:00
1:55 AM,41.2,30.6,66,29.81,10.0,NW,8.1,-,N/A,,Scattered Clouds,310,2012-11-03 05:55:00
2:55 AM,42.4,30.7,63,29.81,10.0,WNW,9.2,-,N/A,,Overcast,300,2012-11-03 06:55:00
3:55 AM,42.6,31.1,64,29.81,10.0,WNW,9.2,-,N/A,,Overcast,300,2012-11-03 07:55:00
4:55 AM,42.6,30.9,63,29.82,10.0,NW,11.5,-,N/A,,Overcast,310,2012-11-03 08:55:00
5:55 AM,42.1,29.8,62,29.83,10.0,WNW,11.5,19.6,N/A,,Overcast,300,2012-11-03 09:55:00
6:55 AM,42.1,28.0,58,29.85,10.0,NW,11.5,-,N/A,,Overcast,310,2012-11-03 10:55:00
7:55 AM,42.6,28.6,58,29.87,10.0,NW,11.5,-,N/A,,Overcast,310,2012-11-03 11:55:00
8:55 AM,43.7,29.8,58,29.88,10.0,NW,15.0,19.6,N/A,,Overcast,310,2012-11-03 12:55:00
9:55 AM,44.8,29.7,55,29.90,10.0,NW,11.5,21.9,N/A,,Overcast,310,2012-11-03 13:55:00
10:55 AM,47.5,30.2,51,29.88,10.0,NW,11.5,23.0,N/A,,Scattered Clouds,320,2012-11-03 14:55:00
11:55 AM,47.7,30.0,50,29.89,10.0,NNW,12.7,24.2,N/A,,Overcast,330,2012-11-03 15:55:00
12:55 PM,47.5,29.8,50,29.87,10.0,WNW,17.3,26.5,N/A,,Overcast,300,2012-11-03 16:55:00
1:55 PM,48.7,29.8,48,29.87,10.0,NW,12.7,-,N/A,,Overcast,310,2012-11-03 17:55:00
2:55 PM,48.4,29.5,48,29.87,10.0,WNW,16.1,26.5,N/A,,Overcast,290,2012-11-03 18:55:00
3:55 PM,48.0,29.3,48,29.89,10.0,WNW,15.0,21.9,N/A,,Overcast,300,2012-11-03 19:55:00
4:55 PM,47.1,29.5,50,29.90,10.0,NW,12.7,-,N/A,,Overcast,310,2012-11-03 20:55:00
5:55 PM,46.4,28.9,51,29.91,10.0,WNW,16.1,25.3,N/A,,Overcast,300,2012-11-03 21:55:00
6:55 PM,46.0,28.2,50,29.93,10.0,WNW,12.7,23.0,N/A,,Overcast,300,2012-11-03 22:55:00
7:55 PM,45.5,28.4,51,29.94,10.0,WNW,12.7,18.4,N/A,,Overcast,300,2012-11-03 23:55:00
8:55 PM,45.1,28.2,52,29.94,10.0,NW,13.8,21.9,N/A,,Overcast,310,2012-11-04 00:55:00
9:55 PM,44.6,28.4,53,29.96,10.0,WNW,11.5,21.9,N/A,,Overcast,300,2012-11-04 01:55:00
10:55 PM,43.2,27.1,53,29.98,10.0,NNW,12.7,25.3,N/A,,Overcast,330,2012-11-04 02:55:00
11:55 PM,40.8,27.7,60,29.99,10.0,WNW,11.5,-,N/A,,Clear,300,2012-11-04 03:55:00